Location: Brno
(49.2000°N, 16.6330°E)
Time: 04:57:52
(UTC+01:00)

ISS - Pass Details

Date: 04 December 2021
Orbit: 413 x 422 km, 51.6° (Epoch: 22 January)

Event Time Altitude Azimuth Distance (km) Brightness Sun altitude
Rises 17:51:20 0° 290° (WNW) 2,385 1.0 -17.9°
Reaches altitude 10° 17:53:28 10° 285° (WNW) 1,515 0.0 -18.2°
Maximum altitude 17:56:47 53° 208° (SSW) 529 -3.1 -18.8°
Enters shadow 17:57:53 35° 152° (SSE) 706 -2.8 -18.9°
